Location: Barcelona
(41.3830°N, 2.1830°E)
Time: 01:15:35
(UTC+02:00)

ISS - Pass Details

Date: 17 July 2019
Orbit: 409 x 418 km, 51.6° (Epoch: 23 July)

Event Time Altitude Azimuth Distance (km) Brightness Sun altitude
Rises 23:49:00 0° 257° (WSW) 2,346 0.3 -20.8°
Reaches altitude 10° 23:51:13 10° 267° (W) 1,485 -0.6 -21.0°
Maximum altitude 23:54:17 33° 334° (NNW) 712 -2.0 -21.3°
Drops below altitude 10° 23:57:21 10° 41° (NE) 1,485 -0.8 -21.6°
Sets 23:59:34 0° 51° (NE) 2,348 0.2 -21.8°
